Location: Passau
(48.5830°N, 13.4830°E)
Time: 20:11:58
(UTC+02:00)

S-56A Canister/Altair - Pass Details

Date: 27 May 2024
Orbit: 637 x 2489 km, 38.9° (Epoch: 15 June)

Event Time Altitude Azimuth Distance (km) Brightness Sun altitude
Rises 08:26:46 0° 259° (WSW) 5,876 11.5 29.5°
Reaches altitude 10° 08:31:05 10° 254° (WSW) 4,667 11.1 30.2°
Maximum altitude 08:42:42 49° 186° (S) 2,046 10.1 32.2°
Drops below altitude 10° 08:50:39 10° 115° (ESE) 3,237 12.0 33.5°
Sets 08:53:07 0° 109° (ESE) 3,986 12.2 33.9°
